This is the latest recevied weather packets stored in our database for station/object K3FAZ. If no packets are shown the sender has not sent any weather packets the latest 10 day(s).
| Time | Temp. | Humidity | Pressure | Rain* | Wind** | Luminosity | Snow |
|---|---|---|---|---|---|---|---|
| 1777749851 | 7.78° C | 63% | 1017.9 hPa | 0 mm | - | 294 W/m² | - |
| 1777749548 | 7.78° C | 66% | 1017.9 hPa | 0 mm | - | 576 W/m² | - |
| 1777749246 | 7.22° C | 70% | 1018.2 hPa | 0 mm | - | 772 W/m² | - |
| 1777748943 | 7.22° C | 71% | 1018.1 hPa | 0 mm | - | 372 W/m² | - |
| 1777748640 | 6.67° C | 73% | 1018.1 hPa | 0 mm | - | 437 W/m² | - |
| 1777748336 | 6.67° C | 73% | 1018.3 hPa | 0 mm | - | 185 W/m² | - |
| 1777748031 | 6.67° C | 74% | 1018.3 hPa | 0 mm | - | 312 W/m² | - |
| 1777747729 | 6.67° C | 75% | 1018.4 hPa | 0 mm | - | 325 W/m² | - |
| 1777747424 | 6.67° C | 75% | 1018.3 hPa | 0 mm | - | 219 W/m² | - |
| 1777747121 | 6.11° C | 75% | 1018.3 hPa | 0 mm | - | 340 W/m² | - |
| 1777746817 | 6.11° C | 75% | 1018.4 hPa | 0 mm | - | 259 W/m² | - |
| 1777746512 | 6.11° C | 76% | 1018.6 hPa | 0 mm | - | 217 W/m² | - |
| 1777746208 | 6.11° C | 77% | 1018.5 hPa | 0 mm | - | 176 W/m² | - |
| 1777745905 | 6.11° C | 76% | 1018.3 hPa | 0 mm | - | 175 W/m² | - |
| 1777745604 | 6.11° C | 77% | 1018.4 hPa | 0 mm | - | 226 W/m² | - |
| 1777745301 | 6.11° C | 78% | 1018.4 hPa | 0 mm | - | 226 W/m² | - |
| 1777744998 | 6.11° C | 78% | 1018.4 hPa | 0 mm | - | 123 W/m² | - |
| 1777744694 | 6.11° C | 77% | 1018.4 hPa | 0 mm | - | 186 W/m² | - |
| 1777744388 | 6.67° C | 78% | 1018.6 hPa | 0 mm | - | 186 W/m² | - |
| 1777744086 | 6.67° C | 79% | 1018.4 hPa | 0 mm | - | 182 W/m² | - |
| 1777743783 | 6.11° C | 78% | 1018.3 hPa | 0 mm | - | 201 W/m² | - |
| 1777743479 | 6.11° C | 79% | 1018.2 hPa | 0 mm | - | 252 W/m² | - |
| 1777743176 | 6.11° C | 78% | 1018.3 hPa | 0 mm | - | 239 W/m² | - |
| 1777742874 | 6.11° C | 80% | 1018.3 hPa | 0 mm | - | 238 W/m² | - |
| 1777742571 | 6.11° C | 79% | 1018.4 hPa | 0 mm | - | 243 W/m² | - |
* Rain latest hour (hover to see other rain measurements)
** Current wind speed in m/s (hover to see current wind gust speed)